Weather History for Warsaw, IN

Change the Weather History Date:

Monday, November 26, 2012

  Actual Average Record
Temperature  
Mean Temperature 30 °F -  
Max Temperature 37 °F 48 °F 63 °F (1990)
Min Temperature 24 °F 30 °F 1 °F (1950)
Degree Days  
Heating Degree Days 34    
Moisture  
Dew Point 25 °F    
Average Humidity 77    
Maximum Humidity 93    
Minimum Humidity 60    
Precipitation  
Precipitation 0.00 in - - ()
Sea Level Pressure  
Sea Level Pressure 30.18 in    
Wind  
Wind Speed 2 mph (NW)    
Max Wind Speed 10 mph    
Max Gust Speed -    
Visibility 9 miles    
Events      
Averages and records for this station are not official NWS values.
T = Trace of Precipitation, MM = Missing Value Source: NWS Daily Summary

Daily Weather History Graph

Daily Weather History Graph

Search for Another Location

Airport:

Trip Planner

Search our weather history database for the weather conditions in past years. The results will help you decide how hot, cold, wet, or windy it might be!

Date:

Astronomy

Nov. 26, 2012 Rise Set
Actual Time 7:44 AM EST 5:16 PM EST
Civil Twilight 7:14 AM EST 5:47 PM EST
Nautical Twilight 6:40 AM EST 6:21 PM EST
Astronomical Twilight 6:07 AM EST 6:54 PM EST
Moon 4:09 PM EST (11/26) 5:53 AM EST (11/26)
Length of Visible Light 10h 32m
Length of Day
9h 31m
Waxing Gibbous, 97% of the Moon is Illuminated
Nov 26
Waxing Gibbous
Nov 28
Full
Dec 6
Last Quarter
Dec 13
New
Dec 20
First Quarter

Hourly Weather History & Observations

Time (EST) Temp. Windchill Dew Point Humidity Pressure Visibility Wind Dir Wind Speed Gust Speed Precip Events Conditions
12:15 AM 30.2 °F - 28.4 °F 93% 30.03 in 10.0 mi Calm Calm - N/A   Mostly Cloudy
12:35 AM 32.0 °F - 28.4 °F 87% 30.04 in 10.0 mi Calm Calm - N/A   Overcast
12:55 AM 32.0 °F - 28.4 °F 87% 30.04 in 10.0 mi Calm Calm - N/A   Overcast
1:15 AM 32.0 °F - 28.4 °F 87% 30.04 in 10.0 mi Calm Calm - N/A   Overcast
1:35 AM 32.0 °F - 28.4 °F 87% 30.05 in 10.0 mi Calm Calm - N/A   Scattered Clouds
1:55 AM 30.2 °F - 26.6 °F 86% 30.05 in 10.0 mi Calm Calm - N/A   Clear
2:15 AM 30.2 °F - 26.6 °F 86% 30.06 in 10.0 mi Calm Calm - N/A   Clear
2:35 AM 28.4 °F - 26.6 °F 93% 30.06 in 10.0 mi Calm Calm - N/A   Clear
2:55 AM 30.2 °F 26.7 °F 26.6 °F 86% 30.07 in 10.0 mi WSW 3.5 mph - N/A   Clear
3:15 AM 28.4 °F - 26.6 °F 93% 30.07 in 10.0 mi Calm Calm - N/A   Clear
3:35 AM 30.2 °F - 26.6 °F 86% 30.08 in 10.0 mi Calm Calm - N/A   Clear
3:55 AM 28.4 °F 23.3 °F 24.8 °F 86% 30.08 in 10.0 mi West 4.6 mph - N/A   Clear
4:15 AM 30.2 °F - 26.6 °F 86% 30.09 in 10.0 mi Calm Calm - N/A   Clear
4:35 AM 26.6 °F 22.6 °F 23.0 °F 86% 30.09 in 10.0 mi WSW 3.5 mph - N/A   Clear
4:55 AM 28.4 °F - 26.6 °F 93% 30.10 in 10.0 mi Calm Calm - N/A   Clear
5:15 AM 28.4 °F - 24.8 °F 86% 30.10 in 10.0 mi Calm Calm - N/A   Clear
5:35 AM 28.4 °F - 26.6 °F 93% 30.11 in 10.0 mi Calm Calm - N/A   Clear
5:55 AM 26.6 °F - 23.0 °F 86% 30.12 in 7.0 mi Calm Calm - N/A   Clear
6:15 AM 24.8 °F - 23.0 °F 93% 30.13 in 7.0 mi Calm Calm - N/A   Clear
6:35 AM 24.8 °F - 23.0 °F 93% 30.13 in 5.0 mi Calm Calm - N/A   Clear
6:55 AM 24.8 °F - 23.0 °F 93% 30.14 in 7.0 mi Calm Calm - N/A   Mostly Cloudy
7:15 AM 24.8 °F - 21.2 °F 86% 30.15 in 7.0 mi Calm Calm - N/A   Mostly Cloudy
7:35 AM 24.8 °F - 23.0 °F 93% 30.15 in 7.0 mi Calm Calm - N/A   Mostly Cloudy
7:55 AM 26.6 °F - 23.0 °F 86% 30.15 in 5.0 mi Calm Calm - N/A   Mostly Cloudy
8:15 AM 26.6 °F - 23.0 °F 86% 30.16 in 5.0 mi Calm Calm - N/A   Scattered Clouds
8:35 AM 24.8 °F - 23.0 °F 93% 30.17 in 5.0 mi Calm Calm - N/A   Scattered Clouds
8:55 AM 26.6 °F - 23.0 °F 86% 30.18 in 5.0 mi Calm Calm - N/A   Scattered Clouds
9:15 AM 26.6 °F - 24.8 °F 93% 30.18 in 5.0 mi Calm Calm - N/A   Scattered Clouds
10:15 AM 32.0 °F - 30.2 °F 93% 30.19 in 7.0 mi Calm Calm - N/A   Scattered Clouds
10:35 AM 33.8 °F - 30.2 °F 87% 30.20 in 10.0 mi Calm Calm - N/A   Clear
10:55 AM 35.6 °F - 30.2 °F 81% 30.20 in 10.0 mi Calm Calm - N/A   Clear
11:15 AM 37.4 °F 32.8 °F 28.4 °F 70% 30.20 in 10.0 mi NW 5.8 mph - N/A   Scattered Clouds
11:35 AM 35.6 °F 29.2 °F 28.4 °F 75% 30.20 in 10.0 mi NW 8.1 mph - N/A   Clear
11:55 AM 35.6 °F 29.9 °F 28.4 °F 75% 30.20 in 10.0 mi WNW 6.9 mph - N/A   Clear
12:15 PM 37.4 °F 33.8 °F 28.4 °F 70% 30.19 in 10.0 mi NW 4.6 mph - N/A   Scattered Clouds
12:35 PM 37.4 °F 30.8 °F 28.4 °F 70% 30.19 in 10.0 mi WNW 9.2 mph - N/A   Scattered Clouds
12:55 PM 37.4 °F 32.8 °F 28.4 °F 70% 30.19 in 10.0 mi NW 5.8 mph - N/A   Scattered Clouds
1:15 PM 37.4 °F 32.1 °F 28.4 °F 70% 30.18 in 10.0 mi NW 6.9 mph - N/A   Mostly Cloudy
1:35 PM 37.4 °F 32.8 °F 26.6 °F 65% 30.19 in 10.0 mi NW 5.8 mph - N/A   Mostly Cloudy
1:55 PM 37.4 °F 32.1 °F 26.6 °F 65% 30.19 in 10.0 mi NW 6.9 mph - N/A   Mostly Cloudy
2:15 PM 37.4 °F 32.1 °F 26.6 °F 65% 30.19 in 10.0 mi NNW 6.9 mph - N/A   Mostly Cloudy
2:35 PM 37.4 °F 31.4 °F 26.6 °F 65% 30.20 in 10.0 mi NNW 8.1 mph - N/A   Overcast
2:55 PM 37.4 °F 30.8 °F 26.6 °F 65% 30.20 in 10.0 mi NNW 9.2 mph - N/A   Mostly Cloudy
3:15 PM 35.6 °F 29.9 °F 24.8 °F 65% 30.20 in 10.0 mi NNW 6.9 mph - N/A   Mostly Cloudy
3:35 PM 35.6 °F 29.2 °F 24.8 °F 65% 30.20 in 10.0 mi NNW 8.1 mph - N/A   Scattered Clouds
3:55 PM 35.6 °F 29.2 °F 23.0 °F 60% 30.20 in 10.0 mi NW 8.1 mph - N/A   Scattered Clouds
4:15 PM 35.6 °F 30.7 °F 23.0 °F 60% 30.20 in 10.0 mi North 5.8 mph - N/A   Mostly Cloudy
4:35 PM 35.6 °F 31.7 °F 23.0 °F 60% 30.21 in 10.0 mi NNW 4.6 mph - N/A   Overcast
4:55 PM 35.6 °F 29.2 °F 23.0 °F 60% 30.21 in 10.0 mi NNW 8.1 mph - N/A   Overcast
5:15 PM 33.8 °F 25.8 °F 23.0 °F 65% 30.22 in 10.0 mi North 10.4 mph - N/A   Overcast
5:35 PM 33.8 °F 27.7 °F 23.0 °F 65% 30.22 in 10.0 mi North 6.9 mph - N/A   Overcast
5:55 PM 33.8 °F 28.6 °F 21.2 °F 60% 30.22 in 10.0 mi North 5.8 mph - N/A   Overcast
6:15 PM 33.8 °F 29.6 °F 23.0 °F 65% 30.23 in 10.0 mi North 4.6 mph - N/A   Overcast
6:35 PM 32.0 °F 28.7 °F 23.0 °F 69% 30.24 in 10.0 mi North 3.5 mph - N/A   Overcast
6:55 PM 32.0 °F - 23.0 °F 69% 30.24 in 10.0 mi Calm Calm - N/A   Overcast
7:15 PM 32.0 °F 28.7 °F 23.0 °F 69% 30.25 in 10.0 mi NNW 3.5 mph - N/A   Overcast
7:35 PM 32.0 °F 26.4 °F 23.0 °F 69% 30.26 in 10.0 mi NW 5.8 mph - N/A   Overcast
7:55 PM 32.0 °F 25.6 °F 23.0 °F 69% 30.27 in 10.0 mi NNW 6.9 mph - N/A   Overcast
8:15 PM 32.0 °F 25.6 °F 23.0 °F 69% 30.27 in 10.0 mi NNW 6.9 mph - N/A   Overcast
8:35 PM 32.0 °F 24.8 °F 23.0 °F 69% 30.28 in 10.0 mi NNW 8.1 mph - N/A   Overcast
8:55 PM 32.0 °F 28.7 °F 23.0 °F 69% 30.28 in 10.0 mi NNW 3.5 mph - N/A   Overcast
9:15 PM 32.0 °F 28.7 °F 23.0 °F 69% 30.28 in 10.0 mi NNW 3.5 mph - N/A   Overcast
9:35 PM 32.0 °F 28.7 °F 23.0 °F 69% 30.29 in 10.0 mi NNW 3.5 mph - N/A   Overcast
9:55 PM 32.0 °F - 23.0 °F 69% 30.30 in 10.0 mi Calm Calm - N/A   Overcast
10:15 PM 32.0 °F - 23.0 °F 69% 30.30 in 10.0 mi Calm Calm - N/A   Overcast
10:35 PM 32.0 °F - 23.0 °F 69% 30.30 in 10.0 mi Calm Calm - N/A   Overcast
10:55 PM 32.0 °F - 24.8 °F 75% 30.30 in 10.0 mi Calm Calm - N/A   Overcast
11:15 PM 32.0 °F 28.7 °F 24.8 °F 75% 30.30 in 10.0 mi WNW 3.5 mph - N/A   Overcast
11:35 PM 32.0 °F 28.7 °F 24.8 °F 75% 30.30 in 10.0 mi WNW 3.5 mph - N/A   Overcast
11:55 PM 32.0 °F - 24.8 °F 75% 30.31 in 10.0 mi Calm Calm - N/A   Overcast